Change the Weather History Date:

Friday, May 31, 2013

  Actual Average Record
Temperature  
Mean Temperature 66 °F -  
Max Temperature 79 °F 75 °F 96 °F (2002)
Min Temperature 52 °F 51 °F 37 °F (1964)
Growing Degree Days 16 (Base 50)    
Moisture  
Dew Point 43 °F    
Average Humidity 47    
Maximum Humidity 82    
Minimum Humidity 20    
Precipitation  
Precipitation 0.00 in - - ()
Sea Level Pressure  
Sea Level Pressure 29.73 in    
Wind  
Wind Speed 15 mph (WNW)    
Max Wind Speed 26 mph    
Max Gust Speed 36 mph    
Visibility 10 miles    
Events      
Averages and records for this station are not official NWS values.
T = Trace of Precipitation, MM = Missing Value Source: NWS Daily Summary

Daily Weather History Graph

Daily Weather History Graph

Search for Another Location

Airport or City:

Trip Planner

Search our weather history database for the weather conditions in past years. The results will help you decide how hot, cold, wet, or windy it might be!

Date:

Astronomy

May. 31, 2013 Rise Set
Actual Time 6:09 AM CDT 9:01 PM CDT
Civil Twilight 5:37 AM CDT 9:33 PM CDT
Nautical Twilight 4:56 AM CDT 10:14 PM CDT
Astronomical Twilight 4:09 AM CDT 11:01 PM CDT
Moon 1:35 AM CDT (5/31) 1:27 PM CDT (5/31)
Length of Visible Light 15h 56m
Length of Day
14h 51m
Waning Gibbous, 51% of the Moon is Illuminated
May 31
Waning Gibbous
May 31
Last Quarter
Jun 8
New
Jun 16
First Quarter
Jun 23
Full

Hourly Weather History & Observations

Time (CDT) Temp. Dew Point Humidity Pressure Visibility Wind Dir Wind Speed Gust Speed Precip Events Conditions
12:15 AM 61.0 °F 43.9 °F 53% 29.67 in 10.0 mi SW 11.5 mph - N/A   Clear
12:35 AM 61.0 °F 44.1 °F 54% 29.68 in 10.0 mi SW 9.2 mph - N/A   Clear
12:55 AM 60.6 °F 44.6 °F 56% 29.69 in 10.0 mi SW 10.4 mph - N/A   Clear
1:15 AM 59.5 °F 45.0 °F 59% 29.70 in 10.0 mi WSW 10.4 mph - N/A   Clear
1:35 AM 58.8 °F 46.0 °F 63% 29.71 in 10.0 mi West 12.7 mph - N/A   Clear
1:55 AM 57.2 °F 46.6 °F 68% 29.71 in 10.0 mi West 15.0 mph - N/A   Clear
2:15 AM 59.0 °F 47.3 °F 65% 29.71 in 10.0 mi West 13.8 mph - N/A   Clear
2:35 AM 61.5 °F 47.3 °F 60% 29.70 in 10.0 mi WSW 13.8 mph - N/A   Clear
2:55 AM 59.4 °F 47.7 °F 65% 29.72 in 10.0 mi West 11.5 mph - N/A   Clear
3:15 AM 59.9 °F 47.3 °F 63% 29.72 in 10.0 mi WNW 13.8 mph - N/A   Clear
3:35 AM 58.8 °F 46.9 °F 65% 29.72 in 10.0 mi NW 13.8 mph - N/A   Clear
3:55 AM 57.4 °F 46.2 °F 66% 29.72 in 10.0 mi WNW 9.2 mph - N/A   Clear
4:15 AM 56.7 °F 46.4 °F 69% 29.72 in 10.0 mi WNW 6.9 mph - N/A   Clear
4:35 AM 55.9 °F 46.6 °F 71% 29.71 in 10.0 mi WNW 8.1 mph - N/A   Clear
4:55 AM 55.2 °F 46.4 °F 72% 29.72 in 10.0 mi WNW 5.8 mph - N/A   Clear
5:15 AM 52.2 °F 46.8 °F 82% 29.72 in 10.0 mi West 6.9 mph - N/A   Clear
5:35 AM 53.1 °F 46.2 °F 78% 29.72 in 10.0 mi West 6.9 mph - N/A   Clear
5:55 AM 52.9 °F 45.5 °F 76% 29.72 in 10.0 mi West 8.1 mph - N/A   Clear
6:15 AM 53.1 °F 45.0 °F 74% 29.72 in 10.0 mi WNW 6.9 mph - N/A   Clear
6:35 AM 52.7 °F 44.8 °F 74% 29.71 in 10.0 mi WNW 6.9 mph - N/A   Clear
6:55 AM 52.9 °F 45.1 °F 75% 29.71 in 10.0 mi West 8.1 mph - N/A   Clear
7:15 AM 53.6 °F 45.3 °F 74% 29.72 in 10.0 mi WNW 8.1 mph - N/A   Clear
7:35 AM 55.4 °F 45.9 °F 70% 29.72 in 10.0 mi WNW 8.1 mph - N/A   Clear
7:55 AM 57.0 °F 46.6 °F 68% 29.72 in 10.0 mi WNW 8.1 mph - N/A   Clear
8:15 AM 58.6 °F 47.3 °F 66% 29.72 in 10.0 mi West 10.4 mph - N/A   Clear
8:35 AM 60.3 °F 47.8 °F 64% 29.72 in 10.0 mi West 9.2 mph - N/A   Clear
8:55 AM 62.2 °F 48.4 °F 60% 29.72 in 10.0 mi West 12.7 mph - N/A   Clear
9:15 AM 63.7 °F 48.7 °F 58% 29.72 in 10.0 mi West 13.8 mph - N/A   Clear
9:35 AM 65.7 °F 49.3 °F 55% 29.72 in 10.0 mi West 11.5 mph - N/A   Clear
9:55 AM 67.5 °F 47.8 °F 49% 29.72 in 10.0 mi West 20.7 mph 26.5 mph N/A   Clear
10:15 AM 68.9 °F 48.9 °F 49% 29.72 in 10.0 mi West 19.6 mph 27.6 mph N/A   Clear
10:35 AM 70.3 °F 46.2 °F 42% 29.72 in 10.0 mi West 25.3 mph 29.9 mph N/A   Clear
10:55 AM 71.1 °F 45.0 °F 39% 29.72 in 10.0 mi West 24.2 mph 28.8 mph N/A   Clear
11:15 AM 70.9 °F 41.4 °F 34% 29.72 in 10.0 mi WNW 18.4 mph 29.9 mph N/A   Clear
11:35 AM 71.8 °F 41.5 °F 34% 29.72 in 10.0 mi West 24.2 mph 34.5 mph N/A   Clear
11:55 AM 73.0 °F 42.6 °F 33% 29.72 in 10.0 mi West 21.9 mph 28.8 mph N/A   Clear
12:15 PM 73.2 °F 39.4 °F 29% 29.72 in 10.0 mi West 23.0 mph 32.2 mph N/A   Clear
12:35 PM 74.3 °F 41.2 °F 30% 29.72 in 10.0 mi West 18.4 mph 26.5 mph N/A   Clear
12:55 PM 74.5 °F 39.2 °F 28% 29.72 in 10.0 mi West 21.9 mph 29.9 mph N/A   Clear
1:15 PM 75.0 °F 38.8 °F 27% 29.72 in 10.0 mi West 25.3 mph 32.2 mph N/A   Clear
1:35 PM 75.6 °F 38.7 °F 26% 29.72 in 10.0 mi West 18.4 mph 31.1 mph N/A   Clear
1:55 PM 75.7 °F 36.1 °F 24% 29.71 in 10.0 mi West 23.0 mph 29.9 mph N/A   Scattered Clouds
2:15 PM 77.2 °F 36.7 °F 23% 29.71 in 10.0 mi West 21.9 mph 33.4 mph N/A   Clear
2:35 PM 77.5 °F 37.2 °F 23% 29.70 in 10.0 mi West 23.0 mph 34.5 mph N/A   Scattered Clouds
2:55 PM 77.5 °F 38.1 °F 24% 29.71 in 10.0 mi West 26.5 mph 31.1 mph N/A   Scattered Clouds
3:15 PM 77.9 °F 34.5 °F 21% 29.71 in 10.0 mi West 23.0 mph 34.5 mph N/A   Clear
3:35 PM 79.0 °F 34.9 °F 20% 29.70 in 10.0 mi West 26.5 mph 34.5 mph N/A   Clear
3:55 PM 77.4 °F 35.6 °F 22% 29.71 in 10.0 mi WNW 23.0 mph 35.7 mph N/A   Scattered Clouds
4:15 PM 77.4 °F 36.9 °F 23% 29.72 in 10.0 mi West 26.5 mph 33.4 mph N/A   Scattered Clouds
4:35 PM 77.7 °F 36.0 °F 22% 29.71 in 10.0 mi West 20.7 mph 31.1 mph N/A   Clear
4:55 PM 76.8 °F 37.8 °F 24% 29.72 in 10.0 mi West 24.2 mph 27.6 mph N/A   Clear
5:15 PM 75.6 °F 36.3 °F 24% 29.72 in 10.0 mi West 24.2 mph 31.1 mph N/A   Clear
5:35 PM 75.4 °F 38.5 °F 26% 29.72 in 10.0 mi WNW 20.7 mph 31.1 mph N/A   Clear
5:55 PM 75.4 °F 38.8 °F 27% 29.72 in 10.0 mi WNW 16.1 mph 29.9 mph N/A   Clear
6:15 PM 74.5 °F 39.0 °F 28% 29.73 in 10.0 mi WNW 19.6 mph 31.1 mph N/A   Clear
6:35 PM 74.7 °F 39.7 °F 28% 29.73 in 10.0 mi WNW 17.3 mph 26.5 mph N/A   Clear
6:55 PM 74.5 °F 38.8 °F 28% 29.73 in 10.0 mi WNW 21.9 mph 29.9 mph N/A   Clear
7:15 PM 73.0 °F 39.6 °F 30% 29.73 in 10.0 mi WNW 19.6 mph 26.5 mph N/A   Clear
7:35 PM 71.6 °F 39.4 °F 31% 29.73 in 10.0 mi WNW 16.1 mph 23.0 mph N/A   Clear
7:55 PM 70.5 °F 41.0 °F 34% 29.74 in 10.0 mi NNW 12.7 mph 19.6 mph N/A   Clear
8:15 PM 69.8 °F 41.2 °F 35% 29.75 in 10.0 mi NW 17.3 mph 23.0 mph N/A   Clear
8:35 PM 67.8 °F 41.5 °F 38% 29.76 in 10.0 mi NNW 23.0 mph 32.2 mph N/A   Clear
8:55 PM 64.4 °F 44.1 °F 48% 29.78 in 10.0 mi NW 20.7 mph 28.8 mph N/A   Clear
9:15 PM 63.1 °F 41.2 °F 45% 29.79 in 10.0 mi NW 21.9 mph 32.2 mph N/A   Clear
9:35 PM 62.4 °F 41.7 °F 47% 29.79 in 10.0 mi NW 13.8 mph 25.3 mph N/A   Clear
9:55 PM 61.7 °F 41.5 °F 48% 29.82 in 10.0 mi NW 21.9 mph 25.3 mph N/A   Clear
10:15 PM 61.0 °F 41.9 °F 49% 29.81 in 10.0 mi NW 24.2 mph 29.9 mph N/A   Clear
10:35 PM 59.9 °F 42.6 °F 53% 29.81 in 10.0 mi NW 20.7 mph 28.8 mph N/A   Clear
10:55 PM 59.9 °F 42.8 °F 53% 29.80 in 10.0 mi NW 20.7 mph 29.9 mph N/A   Clear
11:15 PM 59.2 °F 43.2 °F 55% 29.79 in 10.0 mi NW 21.9 mph 28.8 mph N/A   Clear
11:35 PM 59.0 °F 43.3 °F 56% 29.79 in 10.0 mi NW 21.9 mph 33.4 mph N/A   Clear
11:55 PM 58.1 °F 42.4 °F 56% 29.79 in 10.0 mi NW 23.0 mph 35.7 mph N/A   Clear